Regional Weather Roundup
Issued by NWS

Home | Current Version | Previous Version | Graphics & Text | Print | Product List | Glossary On
Versions: 1 2 3 4 5 6 7 8 9 10 11 12 13 14 15 16 17 18 19 20 21 22 23 24 25 26 27 28 29 30 31 32 33 34 35 36 37 38 39 40 41 42 43 44 45 46 47 48 49 50
000
ASUS44 KMEG 300010
RWRTN
TENNESSEE HOURLY STATE WEATHER ROUNDUP
NATIONAL WEATHER SERVICE MEMPHIS TN
700 PM CDT SAT AUG 29 2015

TNZ002-004-019-021-049-052-054-088>092-300100-
WEST TENNESSEE

CITY           SKY/WX    TMP DP  RH WIND       PRES   REMARKS
MEMPHIS INTL   MOCLDY    86  62  44 S3        30.00R
NWS MEMPHIS      N/A     84 N/A N/A MISG        N/A
JACKSON        PTCLDY    82  69  64 S5        30.02R
DYERSBURG      CLOUDY   N/A N/A N/A MISG        N/A
UNION CITY     CLEAR     81  68  65 CALM      30.00S
PARIS          CLEAR     79  66  65 S3        30.03S
LEXINGTON      CLEAR     81  70  69 SE3       30.03R
$$

TNZ008-025-027-028-033-062-065-066-300100-
NORTH MIDDLE TENNESSEE

CITY           SKY/WX    TMP DP  RH WIND       PRES   REMARKS
NASHVILLE      MOCLDY    76  65  68 S12       30.08S
CLARKSVILLE    PTCLDY    82  70  66 S9        30.03R
SMYRNA         MOCLDY    77  69  76 S5        30.10R
COOKEVILLE     PTCLDY    73  72  94 SW6       30.11S
CROSSVILLE     CLOUDY    76  66  71 VRB3      30.16S
$$

TNZ061-075-076-078-094-096-097-300100-
SOUTH MIDDLE TENNESSEE

CITY           SKY/WX    TMP DP  RH WIND       PRES   REMARKS
FAYETTEVILLE   CLEAR     68  66  94 CALM      30.11F
TULLAHOMA      CLEAR     70  68  94 SE6       30.14S
WINCHESTER     CLOUDY    70  68  94 E5        30.14S
MCMINNVILLE    PTCLDY    72  72 100 S3        30.13F
COLUMBIA       CLEAR     75  75 100 S7        30.07S
SHELBYVILLE    CLEAR     73  70  88 SE6       30.11S
$$

TNZ017-018-042-046-047-300100-
NORTHEAST TENNESSEE

CITY           SKY/WX    TMP DP  RH WIND       PRES   REMARKS
TRI CITIES     CLOUDY    73  67  81 CALM      30.15R
ELIZABETHTON   CLEAR     70  64  83 CALM      30.16S
$$

TNZ012-013-036-069-073-074-300100-
CENTRAL EAST TENNESSEE

CITY           SKY/WX    TMP DP  RH WIND       PRES   REMARKS
KNOXVILLE      CLOUDY    79  67  66 CALM      30.09F
OAK RIDGE      CLOUDY    83  65  54 CALM      30.12R
GATLINBURG     MOCLDY    79  61  53 CALM      30.10S
MORRISTOWN     CLEAR     79  64  61 CALM      30.14R
$$

TNZ083-085-099-300100-
SOUTHEAST TENNESSEE

CITY           SKY/WX    TMP DP  RH WIND       PRES   REMARKS
CHATTANOOGA    CLOUDY    80  62  54 S6        30.11S
$$

SKY/WX REPORTED AS FAIR MEANS FEW OR NO CLOUDS BELOW
12 THOUSAND FEET.



USA.gov is the U.S. government's official web portal to all federal, state and local government web resources and services.